Terug naar catalogus

DELTA 1 DEB

ActiefLEO
NORAD 42087·DEBRIS·🇺🇸 United States

Gelanceerd Dec 15, 1968 vanaf Vandenberg Space Force Base

Loading…

Volgende Passages (komende 24 uur)

TLE

VerouderendSource: Space-Track

Epoch: Sep 10, 2026, 01:42 UTC

1 42087U 68114P   26253.07146064  .00000708  00000-0  55601-2 0  9991
2 42087 101.4329 197.6855 0191283 176.4350 183.8125 12.35780276576641

Volg DELTA 1 DEB in realtime met AllMySat

Download on the App Store